Temperature
9 8 7 8 8 9 9 9 10 10 10 9 8 8 8 8 8 7 7 6 6 5 5 5 5 5 5 5 5 5 5 5 5 5 6 6 6 6 6 6 6 6 6 7
8 7 8 9 9 9 9 9 9 9 9 8 7 7 8 8 7 7 6 6 6 5 5 4 4 4 4 4 4 4 5 5 5 5 5 5 5 5 5 5 5 5 6 6
7 7 8 8 8 8 8 8 8 8 7 7 7 6 7 7 7 7 6 6 5 5 4 4 3 3 4 4 4 4 4 4 4 4 4 4 5 5 5 5 5 5 5 5
7 7 8 7 7 7 7 7 7 7 6 6 7 5 7 7 6 6 5 5 5 4 4 3 3 3 3 4 4 3 4 4 4 4 4 4 4 4 4 4 4 4 4 4
6 6 6 6 6 6 6 6 6 6 6 5 6 5 5 7 6 5 5 5 4 4 3 3 3 3 3 3 3 3 3 3 3 4 4 4 4 4 4 4 4 4 4 4
5 6 6 6 6 6 5 6 6 5 5 4 5 5 5 5 5 5 5 4 4 4 3 2 2 2 2 2 2 2 2 3 3 3 3 3 3 3 3 3 3 3 3 3
5 5 5 5 4 5 5 4 3 3 3 4 5 5 4 5 5 4 4 4 4 3 2 2 2 1 1 1 2 2 2 2 2 2 3 3 3 3 3 3 3 3 3 3
4 3 4 4 4 3 3 4 3 3 4 4 4 4 4 4 4 4 3 3 3 2 2 2 1 1 1 1 1 1 1 1 2 2 2 2 2 2 2 2 2 2 2 2
3 3 3 4 4 4 3 3 4 3 3 3 4 4 4 3 3 2 2 2 2 2 2 1 1 1 1 1 1 1 1 1 1 1 1 1 1 1 1 2 2 2 1 1
3 2 2 2 3 2 3 3 2 2 3 3 5 4 3 3 2 1 1 1 1 1 1 1 1 0 0 0 0 0 0 0 0 0 0 0 1 1 1 1 1 1 1 1
2 1 1 1 1 1 1 2 2 2 3 3 3 3 3 2 2 1 0 1 1 1 1 0 0 0 0 -0 -0 -0 -0 -0 -0 -0 -0 -0 -0 -0 -0 -0 0 0 0 0
1 1 0 1 1 1 1 1 1 1 1 2 2 2 1 1 1 0 0 1 1 0 0 -0 -0 -1 -1 -1 -1 -1 -1 -1 -1 -1 -1 -1 -1 -1 -1 -1 -1 -1 -0 -0
0 -0 -0 0 -0 -1 -1 -0 -0 -0 0 0 1 1 0 -0 -0 0 0 0 -0 -0 -1 -1 -1 -1 -1 -1 -1 -1 -1 -1 -2 -2 -2 -2 -2 -2 -2 -2 -2 -1 -1 -1
1 -1 -1 0 0 -1 -1 -1 -1 -1 -1 -0 0 1 0 -0 -1 -1 -1 -1 -1 -1 -1 -1 -2 -2 -2 -2 -2 -2 -2 -2 -2 -2 -2 -2 -2 -2 -2 -2 -2 -2 -2 -2
-1 -1 -1 -0 0 -0 -1 -1 -1 -2 -1 -1 -0 0 -0 -1 -1 -1 -1 -1 -2 -2 -2 -2 -2 -2 -3 -3 -3 -3 -3 -3 -3 -3 -3 -3 -3 -3 -3 -3 -3 -3 -3 -3
-2 -2 -2 -2 -0 -1 -1 -1 -1 -1 -1 -1 -1 -1 -1 -1 -1 -2 -2 -3 -3 -2 -3 -3 -3 -3 -3 -3 -3 -3 -3 -3 -3 -3 -4 -4 -4 -4 -4 -4 -4 -4 -4 -4
-3 -3 -2 -2 -1 -1 -2 -2 -2 -2 -2 -2 -2 -2 -2 -3 -3 -3 -3 -3 -3 -3 -3 -3 -3 -3 -3 -4 -4 -4 -4 -4 -4 -4 -4 -4 -4 -4 -4 -4 -4 -4 -4 -5
-3 -3 -3 -2 -2 -3 -2 -2 -2 -3 -3 -3 -3 -3 -3 -3 -3 -3 -3 -4 -4 -4 -4 -4 -4 -4 -4 -4 -4 -4 -5 -5 -5 -5 -5 -5 -5 -5 -5 -5 -5 -5 -5 -5
-4 -3 -3 -3 -3 -2 -2 -3 -4 -4 -4 -4 -4 -4 -4 -4 -4 -4 -4 -4 -4 -5 -5 -5 -5 -5 -5 -5 -5 -5 -5 -5 -5 -5 -5 -5 -6 -6 -6 -6 -6 -6 -6 -6
-4 -4 -4 -3 -3 -3 -3 -4 -4 -4 -5 -5 -5 -5 -5 -5 -5 -5 -5 -5 -5 -5 -5 -5 -5 -5 -5 -5 -6 -6 -5 -6 -6 -6 -6 -6 -6 -6 -6 -6 -7 -7 -7 -7
-5 -5 -4 -4 -4 -4 -5 -5 -4 -4 -5 -5 -5 -5 -6 -6 -6 -6 -5 -6 -6 -6 -6 -6 -6 -6 -6 -6 -6 -6 -6 -6 -7 -7 -7 -7 -7 -7 -7 -7 -7 -7 -8 -8
-5 -5 -5 -4 -4 -4 -6 -6 -6 -6 -5 -6 -6 -6 -6 -6 -6 -7 -6 -7 -7 -7 -7 -7 -7 -7 -7 -7 -7 -7 -7 -7 -7 -7 -8 -7 -8 -8 -8 -8 -8 -8 -8 -8
-6 -6 -5 -5 -5 -6 -6 -6 -6 -6 -7 -7 -7 -7 -7 -7 -7 -7 -7 -7 -7 -7 -7 -7 -7 -7 -7 -7 -8 -8 -7 -8 -8 -8 -8 -8 -8 -8 -8 -9 -9 -9 -9 -9
-7 -7 -6 -6 -7 -7 -7 -7 -7 -7 -7 -7 -7 -8 -8 -8 -8 -8 -8 -8 -8 -8 -8 -8 -8 -8 -8 -8 -8 -8 -8 -8 -9 -9 -9 -9 -9 -9 -9 -9 -9 -9 -9 -9
-7 -8 -7 -8 -8 -7 -7 -7 -7 -8 -8 -8 -8 -8 -8 -8 -9 -9 -9 -9 -9 -9 -9 -9 -9 -9 -9 -9 -9 -8 -9 -9 -9 -9 -9 -9 -9 -9 -9 -10 -10 -10 -10 -10
-9 -9 -8 -8 -8 -9 -8 -8 -8 -8 -8 -8 -9 -9 -9 -9 -9 -9 -9 -9 -9 -9 -9 -9 -9 -9 -9 -9 -9 -9 -9 -9 -9 -10 -10 -10 -10 -10 -10 -10 -10 -10 -10 -10
Wind_Speed
4 4 5 6 8 7 5 7 8 4 2 4 7 7 5 5 5 5 4 4 5 4 5 5 6 6 6 5 5 5 6 5 5 4 3 3 3 3 3 4 6 6 6 7
3 7 6 4 5 7 7 8 7 4 0 2 5 7 5 6 6 6 6 5 5 5 5 6 6 6 6 6 5 5 5 5 5 3 3 2 3 2 3 3 5 6 6 6
6 1 3 4 4 6 8 7 6 4 2 4 4 6 6 5 5 5 5 5 5 7 7 6 6 4 5 5 5 5 5 5 4 4 4 3 3 3 2 2 2 4 5 5
5 3 2 4 5 5 6 3 4 3 3 4 4 5 5 6 5 6 6 6 5 5 6 6 6 5 5 5 5 5 5 5 4 4 4 5 3 3 2 2 2 3 4 4
3 2 2 4 4 4 3 2 3 4 5 4 5 4 5 4 5 6 6 6 5 5 6 6 6 6 5 5 5 5 5 5 4 4 4 4 3 2 2 3 3 2 2 3
2 1 1 2 2 1 1 1 2 3 2 5 8 7 5 3 4 4 5 5 5 5 5 5 5 5 4 5 5 5 5 5 4 4 3 3 4 3 4 3 2 1 1 2
3 2 0 1 1 1 0 2 0 2 4 6 4 5 5 2 1 3 4 5 5 5 5 6 6 5 5 5 5 4 5 4 4 4 3 3 3 3 4 3 3 2 1 1
2 3 3 1 1 2 3 4 4 4 4 2 2 5 4 2 3 5 4 3 4 4 4 5 5 5 5 5 5 5 5 4 4 4 3 3 2 2 2 2 2 2 1 1
2 1 1 1 1 1 2 3 2 1 3 3 5 4 2 3 4 4 3 2 3 3 3 4 4 4 4 5 5 5 5 4 4 4 3 3 2 2 2 2 1 1 1 0
2 2 1 1 1 1 1 1 1 3 3 5 5 4 3 3 2 2 2 2 2 3 3 3 3 3 3 3 4 4 4 4 4 3 3 2 2 2 2 2 1 1 0 0
2 1 1 1 4 3 2 2 3 3 4 3 4 2 2 3 3 3 2 2 2 2 2 3 2 2 2 3 3 3 4 3 3 3 2 2 2 2 2 1 1 1 0 0
1 1 3 3 2 2 1 3 3 3 4 4 3 3 2 3 3 3 2 1 1 1 1 2 2 1 2 2 2 3 3 3 3 3 3 2 2 2 2 2 1 1 1 1
0 0 2 1 0 1 2 2 2 2 2 4 4 4 0 2 3 2 2 1 1 1 1 1 1 1 1 1 2 2 3 3 3 3 3 2 2 2 2 2 2 1 1 2
0 2 5 6 4 2 4 4 3 3 4 5 7 5 4 2 2 2 2 1 0 1 1 1 1 1 1 1 1 2 2 2 3 2 2 2 3 3 2 2 2 2 2 2
0 4 5 7 7 5 6 7 7 8 8 8 8 7 6 3 2 2 2 1 1 0 1 1 1 1 1 1 1 1 1 2 2 2 2 2 2 2 2 2 2 2 3 4
0 3 3 6 6 5 8 9 9 10 10 10 10 9 4 2 1 1 2 2 2 2 1 1 1 1 1 1 1 0 1 1 2 2 2 2 2 2 2 2 2 3 3 3
3 3 3 5 3 4 7 8 9 7 5 6 9 7 3 2 1 2 3 3 3 3 3 2 2 2 2 1 1 1 1 1 1 2 2 2 2 2 3 3 3 3 4 4
4 3 3 3 2 6 5 1 3 5 5 5 4 3 3 3 3 2 2 3 3 3 3 3 2 1 1 1 1 1 1 1 2 2 3 3 2 3 3 3 4 4 4 4
3 4 3 3 4 6 3 1 1 3 5 3 4 4 4 3 2 3 2 2 2 3 4 3 2 1 1 1 1 1 1 2 2 3 3 3 3 3 3 4 4 4 4 5
1 2 3 3 4 5 3 2 1 0 4 2 2 3 4 3 3 5 4 4 4 4 3 2 1 0 1 1 1 1 2 2 3 3 3 3 3 4 4 4 5 4 5 5
1 3 5 5 5 5 3 3 1 2 5 3 2 3 3 3 5 5 5 5 4 3 2 1 0 0 1 1 1 1 2 3 3 2 2 3 3 4 4 4 4 4 5 5
4 3 4 4 5 6 1 1 2 4 3 3 4 4 4 5 5 5 4 4 4 3 2 1 1 1 1 0 1 1 3 2 2 2 3 3 4 4 4 4 4 4 4 5
4 4 3 4 5 2 1 2 2 2 4 4 5 5 4 5 5 5 5 4 3 2 2 1 1 1 2 1 1 2 3 2 1 2 3 3 4 4 4 4 4 4 4 4
3 1 3 4 5 3 2 2 3 3 4 5 5 5 4 5 5 5 4 3 3 2 2 1 1 1 2 2 2 2 2 2 2 2 3 3 3 4 4 4 4 4 4 5
2 2 3 5 4 4 3 3 5 5 4 5 5 5 4 4 5 4 3 3 3 3 2 1 1 2 3 2 2 2 2 1 2 2 3 3 3 3 3 4 4 5 5 6
2 2 4 5 3 3 5 4 4 5 5 5 5 5 5 3 3 3 3 2 2 2 2 2 2 2 2 2 2 2 2 1 2 2 3 3 3 3 3 3 4 6 7 9
Wind_Direction
190 201 213 216 220 246 272 265 265 277 177 213 238 241 228 207 203 209 195 176 174 167 141 133 132 133 131 129 128 126 118 117 121 125 121 117 108 94 81 70 68 63 58 51
195 226 234 246 249 252 261 268 271 288 10 235 259 258 238 210 205 203 196 186 176 160 142 135 130 137 141 139 136 133 128 125 128 132 128 125 121 105 101 84 71 65 59 52
214 222 222 236 243 247 247 249 263 265 292 246 277 279 228 208 198 192 184 179 172 165 159 151 143 143 145 143 146 143 135 130 129 128 113 110 95 90 80 79 73 60 59 55
235 248 238 227 233 242 250 277 284 261 244 248 201 265 244 196 191 198 193 182 175 156 151 153 155 158 157 153 146 139 137 129 124 126 131 139 138 129 129 124 97 71 61 56
228 215 226 230 236 242 261 317 283 263 247 269 227 238 271 190 204 204 191 177 164 160 158 159 162 162 155 147 145 142 136 130 133 134 137 146 130 118 120 118 109 91 77 66
249 322 291 265 304 241 246 305 288 265 237 251 223 211 264 219 211 186 174 166 163 159 153 151 149 143 144 145 142 143 141 136 139 141 139 140 136 133 133 131 132 128 112 86
234 218 113 32 56 181 201 123 175 220 219 240 199 206 241 227 161 145 154 162 160 155 154 154 153 156 154 152 151 149 147 147 146 145 144 146 142 148 155 156 159 150 131 74
240 240 180 189 186 201 218 188 188 218 230 248 218 222 235 149 112 94 95 111 124 138 152 157 162 163 162 160 159 158 159 156 155 156 152 148 142 149 147 145 152 163 172 189
280 263 84 101 18 147 210 224 243 272 281 263 231 224 219 113 102 102 102 111 141 161 159 155 154 157 161 167 170 172 167 162 165 164 157 155 153 142 143 143 124 136 161 193
329 278 242 61 55 294 279 237 153 210 226 249 250 221 220 176 153 129 130 144 155 156 156 155 157 161 166 169 172 169 167 165 163 162 170 173 155 144 139 152 150 149 123 351
335 227 244 182 192 197 186 201 221 239 247 229 252 248 351 150 150 145 136 115 142 148 156 157 159 162 159 152 155 165 163 157 159 163 166 159 161 161 152 163 175 184 225 251
328 281 254 228 100 36 199 206 188 202 251 235 250 254 353 68 83 99 105 117 144 155 136 139 155 153 149 159 165 169 163 163 167 166 164 164 168 169 170 185 196 208 227 248
122 187 291 271 54 8 282 268 249 244 259 240 235 239 348 54 57 65 72 72 123 130 107 107 124 149 158 163 164 171 171 170 163 160 164 168 178 187 198 204 209 229 242 252
125 217 217 235 260 228 254 250 229 203 226 248 241 246 271 309 337 344 347 9 80 137 126 127 139 174 196 185 178 175 175 162 158 156 170 189 204 208 210 211 220 234 242 247
111 246 247 267 271 253 253 249 227 218 229 236 256 260 263 276 274 288 311 347 10 219 136 181 204 222 222 215 190 163 160 156 163 168 188 210 216 218 220 222 230 246 252 258
202 258 281 276 261 255 264 255 239 235 238 248 264 271 283 292 6 7 352 334 311 305 280 262 236 224 232 234 231 179 178 179 168 181 209 220 217 221 223 227 234 245 252 255
200 216 245 264 276 300 265 243 230 229 229 228 246 259 303 313 321 305 302 295 284 297 288 274 249 230 227 227 217 221 226 203 181 199 220 224 223 231 238 245 249 248 248 254
195 210 237 267 284 246 244 197 194 210 240 235 252 286 292 287 298 303 291 282 295 304 297 290 270 246 235 237 213 229 227 204 207 216 227 230 229 244 252 250 251 252 254 252
201 197 230 238 251 260 263 286 194 218 262 270 262 289 321 334 324 309 342 335 301 296 294 289 276 255 241 212 187 176 238 224 223 231 232 233 233 242 248 252 256 261 261 262
48 185 217 238 250 255 257 310 337 142 261 319 301 287 304 336 295 289 333 326 313 313 308 306 294 254 220 236 170 177 231 230 238 245 248 247 245 246 250 253 260 264 264 266
180 210 220 237 247 257 271 290 40 201 257 330 319 293 291 266 260 290 319 320 317 318 320 330 330 279 259 236 165 217 242 246 249 258 267 266 262 258 256 259 263 261 266 265
196 210 212 218 235 250 306 88 189 237 318 333 326 317 303 294 301 309 313 318 322 323 327 338 344 311 312 302 195 242 261 264 252 256 266 269 269 268 266 258 265 263 258 260
208 205 208 211 226 239 188 199 259 317 312 316 318 314 306 299 298 302 305 307 306 306 307 318 305 303 313 312 243 248 270 273 264 263 266 268 273 271 264 257 261 262 256 258
222 230 234 257 257 257 253 285 313 313 301 308 309 304 299 287 289 295 300 303 303 305 298 308 309 295 303 306 293 263 266 261 258 266 274 272 270 271 269 267 261 258 256 259
244 197 235 250 271 295 274 292 299 303 306 308 310 304 295 288 289 289 292 292 290 300 310 299 265 275 287 303 305 296 275 231 248 265 274 278 278 274 276 277 269 266 262 261
241 211 227 247 259 264 279 298 305 303 304 307 312 315 313 296 287 293 291 293 296 301 309 308 300 292 290 301 306 305 295 258 247 268 278 279 278 276 277 280 292 290 281 282
Height
1474 1478 1478 1476 1477 1476 1475 1475 1474 1472 1472 1476 1477 1476 1476 1476 1478 1479 1481 1482 1484 1486 1488 1490 1491 1492 1494 1496 1497 1499 1502 1504 1506 1509 1511 1514 1516 1518 1520 1522 1524 1525 1527 1528
1474 1475 1473 1473 1474 1474 1474 1475 1474 1474 1473 1476 1476 1475 1472 1472 1474 1475 1477 1479 1481 1484 1486 1487 1488 1490 1491 1493 1495 1497 1500 1502 1505 1508 1509 1512 1514 1516 1518 1520 1522 1523 1524 1526
1472 1473 1472 1473 1474 1474 1473 1475 1475 1476 1476 1476 1477 1476 1470 1469 1470 1472 1474 1476 1479 1481 1482 1484 1486 1487 1489 1491 1493 1496 1498 1500 1503 1506 1507 1510 1512 1514 1516 1518 1519 1521 1522 1523
1471 1471 1471 1472 1473 1474 1473 1473 1474 1475 1480 1480 1478 1483 1467 1464 1467 1469 1471 1473 1475 1478 1480 1482 1483 1485 1486 1489 1492 1494 1496 1498 1501 1503 1505 1508 1510 1511 1514 1516 1517 1518 1520 1521
1471 1471 1471 1472 1472 1473 1474 1474 1475 1476 1478 1481 1477 1483 1471 1462 1466 1466 1468 1470 1473 1475 1477 1479 1481 1483 1485 1487 1490 1492 1494 1496 1499 1501 1503 1506 1508 1510 1512 1513 1514 1516 1517 1519
1471 1471 1471 1472 1472 1473 1474 1476 1476 1477 1480 1487 1475 1480 1472 1465 1463 1463 1465 1468 1470 1473 1476 1478 1480 1482 1484 1486 1487 1490 1492 1494 1497 1499 1501 1504 1505 1507 1509 1510 1512 1513 1515 1516
1472 1472 1472 1473 1474 1474 1475 1481 1486 1487 1489 1481 1468 1472 1471 1462 1460 1461 1464 1466 1468 1471 1474 1476 1477 1479 1481 1483 1485 1488 1490 1492 1494 1496 1499 1501 1502 1504 1506 1507 1509 1510 1511 1512
1473 1475 1473 1473 1475 1477 1477 1477 1485 1486 1479 1473 1472 1471 1467 1461 1460 1461 1463 1466 1468 1470 1472 1474 1476 1478 1479 1481 1483 1485 1487 1489 1491 1493 1495 1498 1500 1501 1503 1504 1506 1507 1508 1509
1475 1474 1473 1473 1474 1475 1476 1477 1476 1480 1477 1478 1470 1466 1462 1461 1461 1463 1465 1466 1468 1469 1471 1473 1475 1476 1478 1479 1481 1483 1485 1487 1489 1490 1493 1495 1496 1498 1499 1501 1502 1504 1505 1506
1476 1480 1475 1475 1475 1477 1477 1477 1481 1482 1481 1477 1464 1462 1465 1463 1463 1464 1465 1466 1467 1469 1470 1472 1474 1475 1476 1478 1479 1481 1483 1485 1486 1488 1490 1491 1493 1494 1496 1498 1498 1500 1501 1502
1478 1482 1480 1478 1479 1479 1480 1480 1480 1479 1475 1475 1471 1469 1462 1461 1462 1463 1465 1466 1467 1468 1469 1471 1472 1473 1474 1476 1477 1479 1481 1482 1483 1485 1487 1488 1489 1491 1492 1494 1495 1496 1497 1498
1478 1480 1481 1478 1477 1478 1477 1478 1480 1484 1479 1473 1473 1473 1464 1463 1462 1463 1464 1466 1466 1467 1468 1469 1471 1471 1472 1473 1475 1476 1477 1479 1481 1482 1484 1485 1486 1488 1489 1490 1491 1492 1492 1493
1479 1483 1484 1480 1483 1483 1481 1479 1480 1481 1480 1477 1475 1472 1466 1464 1464 1464 1465 1465 1466 1466 1467 1468 1469 1469 1470 1471 1472 1473 1474 1476 1477 1479 1480 1481 1483 1484 1485 1486 1487 1488 1488 1489
1477 1481 1483 1480 1475 1478 1481 1479 1479 1481 1482 1477 1471 1467 1466 1465 1464 1464 1464 1465 1465 1465 1466 1466 1467 1467 1468 1469 1470 1470 1471 1473 1474 1475 1476 1477 1479 1480 1481 1481 1483 1483 1484 1484
1478 1480 1478 1475 1471 1473 1474 1475 1476 1478 1475 1475 1467 1465 1464 1464 1464 1464 1464 1464 1464 1464 1464 1464 1464 1465 1465 1466 1467 1467 1468 1469 1470 1471 1472 1474 1475 1476 1476 1477 1478 1478 1478 1478
1478 1480 1477 1476 1470 1470 1470 1469 1470 1470 1470 1469 1466 1465 1463 1462 1462 1463 1463 1463 1462 1462 1462 1462 1462 1462 1463 1463 1463 1464 1464 1465 1467 1467 1468 1469 1470 1471 1472 1472 1473 1473 1473 1473
1478 1480 1479 1475 1471 1471 1471 1467 1466 1466 1465 1466 1465 1463 1462 1462 1462 1462 1461 1461 1460 1460 1460 1460 1459 1459 1459 1460 1460 1460 1461 1462 1463 1463 1464 1465 1466 1466 1467 1468 1468 1468 1468 1468
1476 1478 1478 1476 1475 1477 1465 1460 1460 1462 1463 1462 1462 1461 1460 1460 1460 1460 1459 1459 1458 1458 1457 1457 1456 1456 1456 1457 1457 1457 1458 1458 1459 1459 1460 1461 1461 1462 1462 1463 1463 1463 1463 1463
1472 1476 1477 1476 1474 1466 1462 1461 1462 1463 1463 1461 1460 1459 1459 1458 1458 1457 1457 1457 1456 1455 1454 1453 1453 1452 1452 1453 1453 1453 1454 1454 1455 1455 1456 1456 1457 1457 1457 1458 1458 1458 1458 1457
1473 1474 1477 1474 1473 1469 1464 1462 1459 1462 1464 1459 1458 1458 1458 1458 1459 1456 1454 1454 1453 1452 1451 1450 1449 1449 1449 1449 1450 1450 1450 1450 1451 1451 1452 1452 1452 1453 1453 1453 1453 1453 1453 1452
1476 1475 1475 1473 1471 1466 1464 1461 1460 1466 1463 1458 1457 1456 1457 1456 1456 1454 1452 1450 1449 1448 1447 1447 1446 1446 1446 1446 1446 1446 1447 1447 1447 1448 1448 1448 1448 1448 1448 1448 1448 1447 1447 1446
1471 1472 1471 1470 1469 1467 1462 1461 1463 1461 1458 1457 1455 1455 1454 1453 1451 1450 1449 1447 1446 1445 1444 1443 1443 1443 1443 1443 1443 1443 1443 1444 1444 1444 1444 1444 1444 1444 1443 1443 1443 1442 1442 1441
1467 1467 1466 1466 1465 1461 1459 1459 1458 1458 1457 1455 1454 1452 1452 1450 1448 1447 1445 1444 1443 1442 1441 1441 1440 1440 1440 1440 1440 1440 1440 1440 1440 1440 1439 1439 1439 1439 1439 1438 1437 1437 1437 1436
1463 1463 1463 1462 1459 1458 1458 1457 1456 1456 1454 1453 1452 1450 1449 1447 1445 1443 1442 1441 1440 1439 1438 1438 1437 1437 1437 1437 1437 1437 1437 1437 1436 1436 1435 1435 1435 1434 1434 1434 1433 1433 1432 1431
1461 1462 1461 1460 1458 1456 1455 1455 1454 1453 1451 1450 1448 1447 1445 1443 1441 1440 1439 1438 1437 1436 1436 1435 1435 1434 1434 1434 1434 1434 1434 1433 1433 1432 1432 1431 1431 1430 1430 1429 1429 1428 1427 1427
1459 1461 1460 1457 1456 1456 1453 1452 1451 1450 1448 1447 1445 1443 1442 1440 1438 1437 1436 1435 1435 1434 1433 1433 1432 1432 1431 1431 1431 1431 1431 1430 1430 1429 1428 1427 1427 1426 1425 1424 1424 1423 1423 1422